Teterboro, NJ

1:14 PM EDT on April 24, 2017 (GMT -0400)
Teterboro

Weather History for KTEB - September, 2013

Change the Weather History Date:

Sunday, September 1, 2013

  Actual Average Record
Temperature  
Mean Temperature 78 °F -  
Max Temperature 84 °F 79 °F 97 °F (2010)
Min Temperature 73 °F 61 °F 55 °F (1991)
Cooling Degree Days 14    
Growing Degree Days 28 (Base 50)    
Moisture  
Dew Point 71 °F    
Average Humidity 79    
Maximum Humidity 89    
Minimum Humidity 65    
Precipitation  
Precipitation 0.01 in - - ()
Sea Level Pressure  
Sea Level Pressure 29.82 in    
Wind  
Wind Speed 4 mph (South)    
Max Wind Speed 10 mph    
Max Gust Speed 16 mph    
Visibility 9 miles    
Events Rain    
Averages and records for this station are not official NWS values.
T = Trace of Precipitation, MM = Missing Value Source: NWS Daily Summary

Daily Weather History Graph

Daily Weather History Graph

Search for Another Location

Airport or City:

Trip Planner

Search our weather history database for the weather conditions in past years. The results will help you decide how hot, cold, wet, or windy it might be!

Date:

Astronomy

Sep. 01, 2013 Rise Set
Actual Time 6:23 AM EDT 7:28 PM EDT
Civil Twilight 5:55 AM EDT 7:56 PM EDT
Nautical Twilight 5:21 AM EDT 8:29 PM EDT
Astronomical Twilight 4:46 AM EDT 9:04 PM EDT
Moon 2:41 AM EDT (9/1) 5:04 PM EDT (9/1)
Length of Visible Light 14h 01m
Length of Day
13h 04m
Waning Crescent, 14% of the Moon is Illuminated
Sep 1
Waning Crescent
Sep 5
New
Sep 12
First Quarter
Sep 19
Full
Sep 26
Last Quarter

Hourly Weather History & Observations

Time (EDT) Temp. Heat Index Dew Point Humidity Pressure Visibility Wind Dir Wind Speed Gust Speed Precip Events Conditions
12:51 AM 78.1 °F - 71.1 °F 79% 29.83 in 10.0 mi SSW 3.5 mph - N/A   Mostly Cloudy
1:03 AM 78.8 °F - 71.6 °F 78% 29.82 in 10.0 mi SSW 4.6 mph - N/A   Overcast
1:51 AM 78.1 °F - 71.1 °F 79% 29.81 in 10.0 mi South 4.6 mph - N/A   Clear
2:51 AM 75.9 °F - 70.0 °F 82% 29.81 in 10.0 mi South 4.6 mph - N/A   Clear
3:51 AM 75.0 °F - 70.0 °F 84% 29.79 in 10.0 mi South 5.8 mph - N/A   Clear
4:35 AM 75.2 °F - 71.6 °F 89% 29.80 in 10.0 mi South 5.8 mph - N/A   Mostly Cloudy
4:49 AM 75.2 °F - 71.6 °F 89% 29.81 in 10.0 mi South 4.6 mph - N/A   Scattered Clouds
4:51 AM 75.0 °F - 71.1 °F 87% 29.81 in 10.0 mi SSW 5.8 mph - N/A   Mostly Cloudy
5:07 AM 75.2 °F - 71.6 °F 89% 29.81 in 10.0 mi South 4.6 mph - N/A   Partly Cloudy
5:19 AM 75.2 °F - 71.6 °F 89% 29.81 in 10.0 mi South 4.6 mph - N/A   Mostly Cloudy
5:51 AM 75.0 °F - 71.1 °F 87% 29.81 in 10.0 mi South 4.6 mph - N/A   Mostly Cloudy
6:04 AM 73.4 °F - 69.8 °F 88% 29.82 in 10.0 mi South 4.6 mph - N/A   Scattered Clouds
6:51 AM 73.9 °F - 70.0 °F 87% 29.83 in 10.0 mi SSW 4.6 mph - N/A   Mostly Cloudy
7:51 AM 75.0 °F - 71.1 °F 87% 29.84 in 10.0 mi Calm Calm - N/A   Mostly Cloudy
8:51 AM 77.0 °F - 71.1 °F 82% 29.84 in 10.0 mi ESE 4.6 mph - N/A   Overcast
9:06 AM 77.0 °F - 71.6 °F 83% 29.84 in 8.0 mi Calm Calm - 0.00 in Rain Light Rain
9:28 AM 78.8 °F - 71.6 °F 78% 29.84 in 8.0 mi South 3.5 mph - 0.00 in   Mostly Cloudy
9:46 AM 78.8 °F - 71.6 °F 78% 29.84 in 8.0 mi SSW 3.5 mph - 0.00 in   Overcast
9:51 AM 78.1 °F - 71.1 °F 79% 29.85 in 8.0 mi SW 3.5 mph - 0.00 in Rain Light Rain
9:58 AM 77.0 °F - 71.6 °F 83% 29.85 in 8.0 mi Calm Calm - 0.01 in Rain Light Rain
10:34 AM 75.2 °F - 71.6 °F 89% 29.85 in 8.0 mi Calm Calm - 0.01 in Rain Light Rain
10:51 AM 75.9 °F - 72.0 °F 87% 29.85 in 8.0 mi NNW 3.5 mph - 0.01 in Rain Light Rain
11:51 AM 77.0 °F - 72.0 °F 84% 29.85 in 7.0 mi Calm Calm - 0.00 in   Overcast
12:00 PM 78.8 °F - 73.4 °F 83% 29.84 in 7.0 mi ESE 3.5 mph - N/A   Overcast
12:32 PM 80.6 °F 84.6 °F 71.6 °F 74% 29.82 in 7.0 mi SSE 5.8 mph - N/A   Scattered Clouds
12:51 PM 81.0 °F 85.2 °F 72.0 °F 74% 29.82 in 9.0 mi Calm Calm - N/A   Partly Cloudy
1:18 PM 82.4 °F 87.2 °F 71.6 °F 70% 29.82 in 10.0 mi South 3.5 mph - N/A   Mostly Cloudy
1:51 PM 82.9 °F 87.5 °F 71.1 °F 67% 29.82 in 10.0 mi SSW 9.2 mph - N/A   Mostly Cloudy
2:00 PM 82.4 °F 87.2 °F 71.6 °F 70% 29.82 in 10.0 mi SSW 6.9 mph - N/A   Scattered Clouds
2:51 PM 84.0 °F 89.0 °F 71.1 °F 65% 29.81 in 10.0 mi SSW 5.8 mph - N/A   Overcast
3:51 PM 84.0 °F 89.0 °F 71.1 °F 65% 29.80 in 10.0 mi SSE 6.9 mph - N/A   Mostly Cloudy
4:51 PM 82.9 °F 88.0 °F 72.0 °F 69% 29.79 in 10.0 mi SSE 8.1 mph - N/A   Scattered Clouds
5:04 PM 82.4 °F 87.2 °F 71.6 °F 70% 29.78 in 10.0 mi SE 10.4 mph 16.1 mph N/A   Mostly Cloudy
5:18 PM 82.4 °F 87.2 °F 71.6 °F 70% 29.79 in 10.0 mi SE 10.4 mph - N/A   Scattered Clouds
5:51 PM 81.0 °F 84.9 °F 71.1 °F 72% 29.80 in 10.0 mi SSE 5.8 mph - N/A   Partly Cloudy
6:51 PM 80.1 °F 83.6 °F 71.1 °F 74% 29.80 in 10.0 mi SSE 5.8 mph - N/A   Clear
7:51 PM 79.0 °F - 72.0 °F 79% 29.80 in 10.0 mi South 4.6 mph - N/A   Clear
8:51 PM 79.0 °F - 71.1 °F 77% 29.81 in 10.0 mi ESE 3.5 mph - N/A   Partly Cloudy
9:51 PM 78.1 °F - 72.0 °F 81% 29.82 in 10.0 mi SSE 3.5 mph - N/A   Partly Cloudy
10:51 PM 77.0 °F - 69.1 °F 76% 29.82 in 10.0 mi Calm Calm - 0.00 in   Clear
11:51 PM 75.9 °F - 71.1 °F 85% 29.80 in 10.0 mi South 4.6 mph - N/A   Partly Cloudy